Regional Weather Roundup
Issued by NWS

Home | Current Version | Previous Version | Graphics & Text | Print | Product List | Glossary On
Versions: 1 2 3 4 5 6 7 8 9 10 11 12 13 14 15 16 17 18 19 20 21 22 23 24 25 26 27 28 29 30 31 32 33 34 35 36 37 38 39 40 41 42 43 44 45 46 47 48 49 50
000
ASUS43 KBIS 160020
RWRND

NORTH DAKOTA REGIONAL WEATHER ROUNDUP
NATIONAL WEATHER SERVICE BISMARCK ND
700 PM CDT MON SEP 15 2014

NOTE: "FAIR" INDICATES FEW OR NO CLOUDS BELOW 12,000 FEET WITH NO
SIGNIFICANT WEATHER AND/OR OBSTRUCTIONS TO VISIBILITY.


NDZ001>003-009>011-017-160100-
NORTHWEST NORTH DAKOTA

CITY           SKY/WX    TMP DP  RH WIND       PRES   REMARKS
WILLISTON      SUNNY     67  31  26 SW7       30.08S
6HR MIN TEMP:  62; 6HR MAX TEMP:  68;

MINOT          CLEAR     65  33  30 SW7       30.08F
MINOT AFB      CLEAR     65  35  32 W5        30.07F
$$

NDZ018>021-031>035-040>046-160100-
SOUTHWEST NORTH DAKOTA

CITY           SKY/WX    TMP DP  RH WIND       PRES   REMARKS
BISMARCK       CLEAR     66  35  31 S8        30.14F
6HR MIN TEMP:  64; 6HR MAX TEMP:  69;

DICKINSON      CLEAR     64  37  36 SW7       30.10F
GARRISON         N/A     64  39  39 SW6       30.10F
6HR MIN TEMP:  63; 6HR MAX TEMP:  67;

HETTINGER ARPT CLEAR     63  37  38 S8        30.14F
$$

NDZ004>008-012>016-024-026-027-054-160100-
NORTHEAST NORTH DAKOTA

CITY           SKY/WX    TMP DP  RH WIND       PRES   REMARKS
GRAND FORKS    PTCLDY    64  40  41 SW7       30.08F
GRND FRKS AFB  CLEAR     63  41  44 W6        30.09F
DEVILS LAKE    CLEAR     63  39  42 W6        30.08F
$$

NDZ022-023-025-028>030-036>039-047>053-160100-
SOUTHEAST NORTH DAKOTA

CITY           SKY/WX    TMP DP  RH WIND       PRES   REMARKS
FARGO          CLEAR     61  38  42 SW8       30.14F
6HR MIN TEMP:  61; 6HR MAX TEMP:  66;

JAMESTOWN      CLEAR     61  38  42 SW6       30.14F
$$




USA.gov is the U.S. government's official web portal to all federal, state and local government web resources and services.